Weather History for Lakehurst NAS, NJ

Change the Weather History Date:

Tuesday, January 8, 2013

  Actual Average Record
Temperature  
Mean Temperature 34 °F -  
Max Temperature 32 °F 40 °F - (-1)
Min Temperature 21 °F 30 °F - (-1)
Degree Days  
Heating Degree Days 30    
Moisture  
Dew Point 26 °F    
Average Humidity 79    
Maximum Humidity 96    
Minimum Humidity 50    
Precipitation  
Precipitation 0.00 in - - ()
Sea Level Pressure  
Sea Level Pressure 30.39 in    
Wind  
Wind Speed 2 mph (WSW)    
Max Wind Speed 12 mph    
Max Gust Speed 20 mph    
Averages and records for this station are not official NWS values.
T = Trace of Precipitation, MM = Missing Value Source: NWS Daily Summary

Daily Weather History Graph

Daily Weather History Graph

Search for Another Location

Airport:

Trip Planner

Search our weather history database for the weather conditions in past years. The results will help you decide how hot, cold, wet, or windy it might be!

Date:

Astronomy

Jan. 08, 2013 Rise Set
Actual Time 7:19 AM EST 4:49 PM EST
Civil Twilight 6:49 AM EST 5:19 PM EST
Nautical Twilight 6:15 AM EST 5:53 PM EST
Astronomical Twilight 5:42 AM EST 6:26 PM EST
Moon 3:49 AM EST (1/8) 1:49 PM EST (1/8)
Length of Visible Light 10h 30m
Length of Day
9h 30m
Waning Crescent, 14% of the Moon is Illuminated
Jan 8
Waning Crescent
Jan 11
New
Jan 18
First Quarter
Jan 26
Full
Feb 3
Last Quarter

Hourly Weather History & Observations

Time (EST) Temp. Windchill Dew Point Humidity Pressure Visibility Wind Dir Wind Speed Gust Speed Precip Events Conditions
12:00 AM 21.9 °F - 21.0 °F 96% 30.40 in - Calm Calm - N/A   Clear
1:00 AM 23.0 °F - 19.9 °F 88% 30.41 in - Calm Calm - N/A   Clear
2:00 AM 23.0 °F - 21.0 °F 92% 30.40 in - Calm Calm - N/A   Clear
3:00 AM 21.9 °F - 19.9 °F 92% 30.40 in - Calm Calm - N/A   Clear
4:00 AM 21.9 °F - 19.0 °F 89% 30.38 in - Calm Calm - N/A   Clear
5:00 AM 21.9 °F - 19.9 °F 92% 30.38 in - Calm Calm - N/A   Clear
6:00 AM 26.1 °F - 23.0 °F 88% 30.40 in - Calm Calm - N/A   Clear
7:00 AM 27.0 °F - 24.1 °F 89% 30.42 in - Calm Calm - N/A   Clear
8:00 AM 30.0 °F 25.2 °F 28.0 °F 92% 30.43 in - SW 4.6 mph - N/A   Clear
9:00 AM 37.0 °F 30.4 °F 30.9 °F 79% 30.43 in - WSW 9.2 mph - N/A   Clear
10:00 AM 42.1 °F 35.7 °F 30.9 °F 65% 30.43 in - WSW 11.5 mph - N/A   Clear
11:00 AM 46.0 °F 41.0 °F 28.9 °F 51% 30.41 in - WSW 10.4 mph 19.6 mph N/A   Clear
12:00 PM 46.9 °F - 30.0 °F 52% 30.38 in - SW 11.5 mph - N/A   Clear
2:00 PM 48.9 °F - 30.9 °F 50% 30.35 in - SW 11.5 mph - N/A   Clear
3:00 PM 48.9 °F - 30.9 °F 50% 30.36 in - West 9.2 mph - N/A   Clear
4:00 PM 46.9 °F - 32.0 °F 56% 30.38 in - West 9.2 mph - N/A   Clear
5:00 PM 42.1 °F - 30.9 °F 65% 30.38 in - Calm Calm - N/A   Clear
6:00 PM 35.1 °F - 30.0 °F 82% 30.38 in - Calm Calm - N/A   Clear
7:00 PM 30.9 °F - 28.0 °F 89% 30.39 in - Calm Calm - N/A   Clear
8:00 PM 26.1 °F - 25.0 °F 96% 30.40 in - Calm Calm - N/A   Clear
9:00 PM 30.0 °F - 27.0 °F 88% 30.38 in - Calm Calm - N/A   Clear
10:00 PM 27.0 °F - 25.0 °F 92% 30.39 in - Calm Calm - N/A   Clear
11:00 PM 28.9 °F - 27.0 °F 92% 30.40 in - Calm Calm - N/A   Overcast